This demonstration page uses our WeatherBlox Daily Observations layout. Learn more.

Left ArrowRight Arrow

Hourly Observations for November 4, 2019

Temp ( °F °C ) Dew Point ( °F °C ) Humidity (%) Winds ( mph kmh ) Pressure ( in mb ) Visibility ( mi km ) Precip ( " mm )
12:53 am 00:53 Clear 40 4.4 33 0.6 77 77 N 6 9 30.00 1016 10 16 0.00 0.00
1:53 am 01:53 Mostly Clear 41 5 34 1.1 76 76 NNW 5 7 30.01 1016 10 16 0.00 0.00
2:53 am 02:53 Cloudy 41 5 34 1.1 76 76 NW 6 9 30.03 1017 10 16 0.00 0.00
3:53 am 03:53 Cloudy 40 4.4 35 1.7 83 83 NW 6 9 30.04 1017 10 16 0.00 0.00
4:53 am 04:53 Cloudy 40 4.4 35 1.7 83 83 NNW 6 9 30.05 1018 10 16 0.00 0.00
5:53 am 05:53 Mostly Cloudy 39 3.9 34 1.1 82 82 NW 5 7 30.06 1018 10 16 0.00 0.00
6:53 am 06:53 Cloudy 40 4.4 35 1.7 83 83 NW 5 7 30.09 1019 10 16 0.00 0.00
7:53 am 07:53 Cloudy 41 5 35 1.7 79 79 NW 5 7 30.13 1020 10 16 0.00 0.00
8:53 am 08:53 Cloudy 43 6.1 36 2.2 76 76 N 6 9 30.14 1021 10 16 0.00 0.00
9:53 am 09:53 Cloudy 45 7.2 36 2.2 71 71 N 10 17 30.16 1021 10 16 0.00 0.00
10:53 am 10:53 Partly Cloudy 46 7.8 35 1.7 66 66 N 14 22 30.17 1022 10 16 0.00 0.00
11:53 am 11:53 Cloudy 46 7.8 32 0 58 58 N 15 24 30.17 1022 10 16 0.00 0.00
12:20 pm 12:20 Cloudy with Light Rain 45 7 30 -1 57 57 NNW 14 22 30.18 1022 10 16 0.00 0.00
12:28 pm 12:28 Cloudy with Light Rain 45 7 34 1 66 66 NNW 13 20 30.18 1022 10 16 0.00 0.00
12:53 pm 12:53 Cloudy 45 7.2 32 0 61 61 N 14 22 30.17 1022 10 16 0.00 0.00
1:53 pm 13:53 Mostly Cloudy 47 8.3 30 -1.1 52 52 N 10 17 30.15 1021 10 16 0.00 0.00
2:53 pm 14:53 Mostly Cloudy 46 7.8 30 -1.1 54 54 NNW 7 11 30.16 1021 10 16 0.00 0.00
3:53 pm 15:53 Cloudy 46 7.8 29 -1.7 51 51 N 12 19 30.18 1022 10 16 0.00 0.00
4:53 pm 16:53 Cloudy 45 7.2 28 -2.2 52 52 Calm 30.19 1023 10 16 0.00 0.00
5:53 pm 17:53 Cloudy 44 6.7 27 -2.8 51 51 N 6 9 30.21 1023 10 16 0.00 0.00
6:53 pm 18:53 Cloudy 42 5.6 28 -2.2 58 58 N 3 6 30.23 1024 10 16 0.00 0.00
7:53 pm 19:53 Cloudy 41 5 28 -2.2 60 60 NW 3 6 30.25 1025 10 16 0.00 0.00
8:53 pm 20:53 Cloudy 40 4.4 28 -2.2 63 63 Calm 30.26 1025 10 16 0.00 0.00
9:53 pm 21:53 Cloudy 39 3.9 29 -1.7 67 67 W 5 7 30.29 1026 10 16 0.00 0.00
10:53 pm 22:53 Cloudy 40 4.4 30 -1.1 68 68 WNW 5 7 30.29 1026 10 16 0.00 0.00
11:53 pm 23:53 Cloudy 39 3.9 30 -1.1 70 70 NW 3 6 30.29 1026 10 16 0.00 0.00

Powered by AerisWeather